Time,TemperatureF,DewpointF,PressureIn,WindDirection,WindDirectionDegrees,WindSpeedMPH,WindSpeedGustMPH,Humidity,HourlyPrecipIn,Conditions,Clouds,dailyrainin,SoftwareType,DateUTC
2013-07-07 00:01:00,75.5,72.0,30.16,SSW,198,0.0,0.0,89,0.00,,,0.00,Wunderground v.1.15,2013-07-07 04:01:00,
2013-07-07 00:10:00,75.0,71.9,30.15,SSW,198,0.0,0.0,90,0.00,,,0.00,Wunderground v.1.15,2013-07-07 04:10:00,
2013-07-07 00:20:00,74.6,71.5,30.15,SSW,198,0.0,0.0,90,0.00,,,0.00,Wunderground v.1.15,2013-07-07 04:20:00,
2013-07-07 00:30:00,74.2,71.4,30.15,SSW,198,0.0,0.0,91,0.00,,,0.00,Wunderground v.1.15,2013-07-07 04:30:00,
2013-07-07 00:50:00,73.7,71.5,30.14,SSW,198,0.0,2.0,93,0.00,,,0.00,Wunderground v.1.15,2013-07-07 04:50:00,
2013-07-07 01:00:00,73.5,71.4,30.14,SSW,198,0.0,0.0,93,0.00,,,0.00,Wunderground v.1.15,2013-07-07 05:00:00,
2013-07-07 01:10:00,73.3,71.2,30.14,SSW,198,0.0,0.0,93,0.00,,,0.00,Wunderground v.1.15,2013-07-07 05:10:00,
2013-07-07 01:20:00,73.1,71.3,30.13,SSW,198,0.0,0.0,94,0.00,,,0.00,Wunderground v.1.15,2013-07-07 05:20:00,
2013-07-07 01:30:00,73.0,71.2,30.13,SSW,198,0.0,0.0,94,0.00,,,0.00,Wunderground v.1.15,2013-07-07 05:30:00,
2013-07-07 01:40:00,72.8,71.0,30.13,SSW,198,0.0,0.0,94,0.00,,,0.00,Wunderground v.1.15,2013-07-07 05:40:00,
2013-07-07 01:50:00,72.7,71.2,30.14,SSE,156,0.0,1.0,95,0.00,,,0.00,Wunderground v.1.15,2013-07-07 05:50:00,
2013-07-07 02:00:00,73.1,71.6,30.14,SSW,207,0.0,1.0,95,0.00,,,0.00,Wunderground v.1.15,2013-07-07 06:00:00,
2013-07-07 02:10:00,73.5,71.7,30.14,East,88,1.0,1.0,94,0.00,,,0.00,Wunderground v.1.15,2013-07-07 06:10:00,
2013-07-07 02:20:00,73.6,71.8,30.14,East,88,0.0,0.0,94,0.00,,,0.00,Wunderground v.1.15,2013-07-07 06:20:00,
2013-07-07 02:30:00,73.7,71.5,30.13,East,88,0.0,0.0,93,0.00,,,0.00,Wunderground v.1.15,2013-07-07 06:30:00,
2013-07-07 02:40:00,73.7,71.5,30.13,East,88,0.0,1.0,93,0.00,,,0.00,Wunderground v.1.15,2013-07-07 06:40:00,
2013-07-07 02:50:00,73.4,71.6,30.12,East,88,0.0,1.0,94,0.00,,,0.00,Wunderground v.1.15,2013-07-07 06:50:00,
2013-07-07 03:00:00,73.4,71.6,30.12,East,88,0.0,0.0,94,0.00,,,0.00,Wunderground v.1.15,2013-07-07 07:00:00,
2013-07-07 03:10:00,73.2,71.4,30.13,East,88,0.0,1.0,94,0.00,,,0.00,Wunderground v.1.15,2013-07-07 07:10:00,
2013-07-07 03:20:00,73.1,71.6,30.13,East,90,0.0,0.0,95,0.00,,,0.00,Wunderground v.1.15,2013-07-07 07:20:00,
2013-07-07 03:30:00,72.9,71.4,30.13,SE,136,0.0,2.0,95,0.00,,,0.00,Wunderground v.1.15,2013-07-07 07:30:00,
2013-07-07 03:40:00,72.8,71.3,30.13,SE,146,1.0,1.0,95,0.00,,,0.00,Wunderground v.1.15,2013-07-07 07:40:00,
2013-07-07 03:50:00,72.8,71.3,30.13,SE,138,1.0,2.0,95,0.00,,,0.00,Wunderground v.1.15,2013-07-07 07:50:00,
2013-07-07 04:00:00,72.9,71.4,30.12,SE,142,1.0,1.0,95,0.00,,,0.00,Wunderground v.1.15,2013-07-07 08:00:00,
2013-07-07 04:10:00,72.9,71.4,30.12,SSE,157,0.0,1.0,95,0.00,,,0.00,Wunderground v.1.15,2013-07-07 08:10:00,
2013-07-07 04:20:00,72.8,71.3,30.12,SSE,158,1.0,1.0,95,0.00,,,0.00,Wunderground v.1.15,2013-07-07 08:20:00,
2013-07-07 04:30:00,72.7,71.2,30.12,SSE,165,1.0,1.0,95,0.00,,,0.00,Wunderground v.1.15,2013-07-07 08:30:00,
2013-07-07 04:40:00,72.6,70.8,30.11,SSE,162,0.0,3.0,94,0.00,,,0.00,Wunderground v.1.15,2013-07-07 08:40:00,
2013-07-07 04:50:00,72.6,70.8,30.11,SSE,162,0.0,3.0,94,0.00,,,0.00,Wunderground v.1.15,2013-07-07 08:50:00,
2013-07-07 05:00:00,72.5,71.0,30.12,SSE,162,0.0,0.0,95,0.00,,,0.00,Wunderground v.1.15,2013-07-07 09:00:00,
2013-07-07 05:10:00,72.4,70.9,30.12,SSE,162,0.0,0.0,95,0.00,,,0.00,Wunderground v.1.15,2013-07-07 09:10:00,
2013-07-07 05:20:00,72.0,70.5,30.12,SSE,161,0.0,0.0,95,0.00,,,0.00,Wunderground v.1.15,2013-07-07 09:20:00,
2013-07-07 05:30:00,71.8,70.6,30.12,SSE,161,0.0,0.0,96,0.00,,,0.00,Wunderground v.1.15,2013-07-07 09:30:00,
2013-07-07 05:40:00,71.7,70.5,30.12,SSE,161,0.0,3.0,96,0.00,,,0.00,Wunderground v.1.15,2013-07-07 09:40:00,
2013-07-07 05:50:00,71.7,70.5,30.12,SSE,161,0.0,3.0,96,0.00,,,0.00,Wunderground v.1.15,2013-07-07 09:50:00,
2013-07-07 06:00:00,71.6,70.4,30.11,SSE,161,0.0,0.0,96,0.00,,,0.00,Wunderground v.1.15,2013-07-07 10:00:00,
2013-07-07 06:10:00,71.5,70.3,30.12,SSE,161,0.0,0.0,96,0.00,,,0.00,Wunderground v.1.15,2013-07-07 10:10:00,
2013-07-07 06:20:00,71.4,70.5,30.12,SSE,161,0.0,0.0,97,0.00,,,0.00,Wunderground v.1.15,2013-07-07 10:20:00,
2013-07-07 06:30:00,71.4,70.5,30.12,SSE,161,0.0,0.0,97,0.00,,,0.00,Wunderground v.1.15,2013-07-07 10:30:00,
2013-07-07 06:40:00,71.4,70.5,30.12,SSE,161,0.0,0.0,97,0.00,,,0.00,Wunderground v.1.15,2013-07-07 10:40:00,
2013-07-07 06:50:00,71.7,70.8,30.12,SW,234,1.0,1.0,97,0.00,,,0.00,Wunderground v.1.15,2013-07-07 10:50:00,
2013-07-07 07:00:00,72.1,71.2,30.12,SSW,205,1.0,1.0,97,0.00,,,0.00,Wunderground v.1.15,2013-07-07 11:00:00,
2013-07-07 07:10:00,72.5,71.3,30.12,SSW,213,1.0,1.0,96,0.00,,,0.00,Wunderground v.1.15,2013-07-07 11:10:00,
2013-07-07 07:20:00,72.7,71.2,30.13,SE,144,1.0,1.0,95,0.00,,,0.00,Wunderground v.1.15,2013-07-07 11:20:00,
2013-07-07 07:30:00,72.9,71.4,30.13,SSE,155,1.0,1.0,95,0.00,,,0.00,Wunderground v.1.15,2013-07-07 11:30:00,
2013-07-07 07:40:00,73.3,71.8,30.13,SSE,147,1.0,1.0,95,0.00,,,0.00,Wunderground v.1.15,2013-07-07 11:40:00,
2013-07-07 07:50:00,73.8,72.0,30.13,South,180,2.0,2.0,94,0.00,,,0.00,Wunderground v.1.15,2013-07-07 11:50:00,
2013-07-07 08:00:00,74.6,72.4,30.13,South,178,2.0,2.0,93,0.00,,,0.00,Wunderground v.1.15,2013-07-07 12:00:00,
2013-07-07 08:10:00,75.7,72.6,30.13,SW,228,2.0,2.0,90,0.00,,,0.00,Wunderground v.1.15,2013-07-07 12:10:00,
2013-07-07 08:20:00,76.5,73.0,30.13,SE,132,2.0,4.0,89,0.00,,,0.00,Wunderground v.1.15,2013-07-07 12:20:00,
2013-07-07 08:30:00,76.9,72.7,30.13,ESE,109,3.0,3.0,87,0.00,,,0.00,Wunderground v.1.15,2013-07-07 12:30:00,
2013-07-07 08:40:00,77.2,73.0,30.13,SE,137,3.0,3.0,87,0.00,,,0.00,Wunderground v.1.15,2013-07-07 12:40:00,
2013-07-07 08:50:00,77.7,72.8,30.13,South,169,3.0,4.0,85,0.00,,,0.00,Wunderground v.1.15,2013-07-07 12:50:00,
2013-07-07 09:00:00,77.9,73.4,30.13,SSW,208,3.0,3.0,86,0.00,,,0.00,Wunderground v.1.15,2013-07-07 13:00:00,
2013-07-07 09:10:00,78.5,73.3,30.13,SW,225,2.0,4.0,84,0.00,,,0.00,Wunderground v.1.15,2013-07-07 13:10:00,
2013-07-07 09:20:00,78.8,73.6,30.13,SSE,150,3.0,5.0,84,0.00,,,0.00,Wunderground v.1.15,2013-07-07 13:20:00,
2013-07-07 09:30:00,79.3,74.0,30.12,ESE,121,3.0,5.0,84,0.00,,,0.00,Wunderground v.1.15,2013-07-07 13:30:00,
2013-07-07 09:40:00,80.0,74.0,30.12,ESE,122,3.0,7.0,82,0.00,,,0.00,Wunderground v.1.15,2013-07-07 13:40:00,
2013-07-07 09:50:00,80.4,73.7,30.12,ESE,123,4.0,4.0,80,0.00,,,0.00,Wunderground v.1.15,2013-07-07 13:50:00,
2013-07-07 10:00:00,81.0,73.9,30.12,SSE,148,3.0,3.0,79,0.00,,,0.00,Wunderground v.1.15,2013-07-07 14:00:00,
2013-07-07 10:10:00,82.0,74.1,30.12,SE,141,3.0,5.0,77,0.00,,,0.00,Wunderground v.1.15,2013-07-07 14:10:00,
2013-07-07 10:20:00,82.6,74.3,30.12,SSE,167,3.0,3.0,76,0.00,,,0.00,Wunderground v.1.15,2013-07-07 14:20:00,
2013-07-07 10:30:00,82.7,74.8,30.12,SE,134,3.0,3.0,77,0.00,,,0.00,Wunderground v.1.15,2013-07-07 14:30:00,
2013-07-07 10:40:00,82.6,74.3,30.12,East,80,4.0,8.0,76,0.00,,,0.00,Wunderground v.1.15,2013-07-07 14:40:00,
2013-07-07 10:50:00,82.3,74.7,30.12,SSE,155,4.0,4.0,78,0.00,,,0.00,Wunderground v.1.15,2013-07-07 14:50:00,
2013-07-07 11:00:00,83.0,74.6,30.11,ESE,113,3.0,3.0,76,0.00,,,0.00,Wunderground v.1.15,2013-07-07 15:00:00,
2013-07-07 11:10:00,83.0,74.3,30.12,SE,131,4.0,5.0,75,0.00,,,0.00,Wunderground v.1.15,2013-07-07 15:10:00,
2013-07-07 11:20:00,83.3,74.1,30.12,ESE,116,4.0,4.0,74,0.00,,,0.00,Wunderground v.1.15,2013-07-07 15:20:00,
2013-07-07 11:30:00,83.7,74.1,30.11,SE,131,4.0,4.0,73,0.00,,,0.00,Wunderground v.1.15,2013-07-07 15:30:00,
2013-07-07 11:40:00,84.3,75.1,30.12,South,185,4.0,4.0,74,0.00,,,0.00,Wunderground v.1.15,2013-07-07 15:40:00,
2013-07-07 11:50:00,84.6,75.0,30.11,ENE,65,3.0,3.0,73,0.00,,,0.00,Wunderground v.1.15,2013-07-07 15:50:00,
2013-07-07 12:00:00,84.6,74.2,30.12,SE,132,4.0,10.0,71,0.00,,,0.00,Wunderground v.1.15,2013-07-07 16:00:00,
2013-07-07 12:10:00,84.8,74.3,30.11,SSE,164,3.0,6.0,71,0.00,,,0.00,Wunderground v.1.15,2013-07-07 16:10:00,
2013-07-07 12:20:00,84.5,74.1,30.11,ESE,123,3.0,3.0,71,0.00,,,0.00,Wunderground v.1.15,2013-07-07 16:20:00,
2013-07-07 12:30:00,84.4,73.5,30.11,South,182,3.0,3.0,70,0.00,,,0.00,Wunderground v.1.15,2013-07-07 16:30:00,
2013-07-07 12:40:00,84.6,73.7,30.11,NNE,23,4.0,4.0,70,0.00,,,0.00,Wunderground v.1.15,2013-07-07 16:40:00,
2013-07-07 12:50:00,84.6,74.2,30.10,NE,55,3.0,3.0,71,0.00,,,0.00,Wunderground v.1.15,2013-07-07 16:50:00,
2013-07-07 13:00:00,84.8,74.3,30.10,SE,137,3.0,5.0,71,0.00,,,0.00,Wunderground v.1.15,2013-07-07 17:00:00,
2013-07-07 13:10:00,85.2,74.3,30.09,SSW,194,3.0,5.0,70,0.00,,,0.00,Wunderground v.1.15,2013-07-07 17:10:00,
2013-07-07 13:20:00,85.5,73.3,30.09,ESE,104,3.0,3.0,67,0.00,,,0.00,Wunderground v.1.15,2013-07-07 17:20:00,
2013-07-07 13:30:00,86.2,74.4,30.08,ENE,78,4.0,4.0,68,0.00,,,0.00,Wunderground v.1.15,2013-07-07 17:30:00,
2013-07-07 13:40:00,86.9,74.6,30.08,SSE,151,4.0,14.0,67,0.00,,,0.00,Wunderground v.1.15,2013-07-07 17:40:00,
2013-07-07 13:50:00,87.0,73.8,30.08,ESE,113,4.0,4.0,65,0.00,,,0.00,Wunderground v.1.15,2013-07-07 17:50:00,
2013-07-07 14:00:00,86.6,74.8,30.08,South,169,3.0,3.0,68,0.00,,,0.00,Wunderground v.1.15,2013-07-07 18:00:00,
2013-07-07 14:10:00,86.8,74.1,30.07,South,169,4.0,4.0,66,0.00,,,0.00,Wunderground v.1.15,2013-07-07 18:10:00,
2013-07-07 14:20:00,87.3,74.1,30.07,East,100,4.0,4.0,65,0.00,,,0.00,Wunderground v.1.15,2013-07-07 18:20:00,
2013-07-07 14:30:00,87.5,74.3,30.06,SSE,153,4.0,4.0,65,0.00,,,0.00,Wunderground v.1.15,2013-07-07 18:30:00,
2013-07-07 14:40:00,88.1,75.8,30.06,SE,132,4.0,4.0,67,0.00,,,0.00,Wunderground v.1.15,2013-07-07 18:40:00,
2013-07-07 14:50:00,87.9,76.9,30.05,ESE,121,4.0,4.0,70,0.00,,,0.00,Wunderground v.1.15,2013-07-07 18:50:00,
2013-07-07 15:00:00,87.9,74.2,30.05,ESE,123,3.0,3.0,64,0.00,,,0.00,Wunderground v.1.15,2013-07-07 19:00:00,
2013-07-07 15:10:00,87.6,73.9,30.05,SE,130,4.0,4.0,64,0.00,,,0.00,Wunderground v.1.15,2013-07-07 19:10:00,
2013-07-07 15:20:00,87.3,74.1,30.04,SE,129,2.0,4.0,65,0.00,,,0.00,Wunderground v.1.15,2013-07-07 19:20:00,
2013-07-07 15:30:00,87.3,74.1,30.04,SSE,156,4.0,4.0,65,0.00,,,0.00,Wunderground v.1.15,2013-07-07 19:30:00,
2013-07-07 15:40:00,87.4,72.8,30.04,SSW,209,4.0,4.0,62,0.00,,,0.00,Wunderground v.1.15,2013-07-07 19:40:00,
2013-07-07 15:50:00,87.4,73.3,30.04,SE,136,4.0,13.0,63,0.00,,,0.00,Wunderground v.1.15,2013-07-07 19:50:00,
2013-07-07 16:00:00,87.7,73.1,30.04,WSW,240,4.0,6.0,62,0.00,,,0.00,Wunderground v.1.15,2013-07-07 20:00:00,
2013-07-07 16:10:00,88.3,75.0,30.03,SSE,150,3.0,3.0,65,0.00,,,0.00,Wunderground v.1.15,2013-07-07 20:10:00,
2013-07-07 16:20:00,88.1,74.8,30.04,ENE,67,3.0,3.0,65,0.00,,,0.00,Wunderground v.1.15,2013-07-07 20:20:00,
2013-07-07 16:30:00,87.6,73.9,30.03,SE,126,3.0,5.0,64,0.00,,,0.00,Wunderground v.1.15,2013-07-07 20:30:00,
2013-07-07 16:40:00,86.7,74.0,30.03,WSW,240,3.0,13.0,66,0.00,,,0.00,Wunderground v.1.15,2013-07-07 20:40:00,
2013-07-07 16:50:00,86.6,73.9,30.03,NE,40,5.0,5.0,66,0.00,,,0.00,Wunderground v.1.15,2013-07-07 20:50:00,
2013-07-07 17:00:00,86.3,73.6,30.03,SSE,156,3.0,3.0,66,0.00,,,0.00,Wunderground v.1.15,2013-07-07 21:00:00,
2013-07-07 17:10:00,85.5,74.6,30.03,NNE,30,3.0,3.0,70,0.00,,,0.00,Wunderground v.1.15,2013-07-07 21:10:00,
2013-07-07 17:20:00,82.2,68.3,30.04,NE,42,6.0,6.0,63,0.00,,,0.00,Wunderground v.1.15,2013-07-07 21:20:00,
2013-07-07 17:30:00,80.6,68.6,30.04,North,360,4.0,6.0,67,0.00,,,0.00,Wunderground v.1.15,2013-07-07 21:30:00,
2013-07-07 17:40:00,79.7,69.0,30.04,NNE,32,2.0,2.0,70,0.00,,,0.00,Wunderground v.1.15,2013-07-07 21:40:00,
2013-07-07 17:50:00,79.4,67.9,30.04,NNE,31,2.0,11.0,68,0.00,,,0.00,Wunderground v.1.15,2013-07-07 21:50:00,
2013-07-07 18:00:00,79.0,68.4,30.04,WSW,246,1.0,1.0,70,0.00,,,0.00,Wunderground v.1.15,2013-07-07 22:00:00,
2013-07-07 18:10:00,78.6,68.4,30.04,SE,138,1.0,1.0,71,0.00,,,0.00,Wunderground v.1.15,2013-07-07 22:10:00,
2013-07-07 18:20:00,78.2,67.6,30.05,SSW,209,1.0,1.0,70,0.00,,,0.00,Wunderground v.1.15,2013-07-07 22:20:00,
2013-07-07 18:30:00,77.8,67.6,30.05,SSW,211,1.0,1.0,71,0.00,,,0.00,Wunderground v.1.15,2013-07-07 22:30:00,
2013-07-07 18:40:00,77.0,69.6,30.04,ESE,111,1.0,1.0,78,0.09,,,0.02,Wunderground v.1.15,2013-07-07 22:40:00,
2013-07-07 18:50:00,75.3,70.1,30.07,ESE,111,0.0,13.0,84,0.06,,,0.02,Wunderground v.1.15,2013-07-07 22:50:00,
2013-07-07 19:00:00,74.2,70.7,30.08,NNW,342,2.0,3.0,89,0.00,,,0.02,Wunderground v.1.15,2013-07-07 23:00:00,
2013-07-07 19:10:00,73.9,70.1,30.08,North,355,2.0,2.0,88,0.00,,,0.02,Wunderground v.1.15,2013-07-07 23:10:00,
2013-07-07 19:20:00,73.8,70.4,30.08,North,355,0.0,0.0,89,0.00,,,0.02,Wunderground v.1.15,2013-07-07 23:20:00,
2013-07-07 19:30:00,73.8,71.3,30.08,East,88,0.0,0.0,92,0.00,,,0.02,Wunderground v.1.15,2013-07-07 23:30:00,
2013-07-07 19:40:00,73.4,71.3,30.08,East,88,0.0,4.0,93,0.00,,,0.02,Wunderground v.1.15,2013-07-07 23:40:00,
2013-07-07 19:50:00,73.0,71.2,30.08,East,88,1.0,1.0,94,0.00,,,0.02,Wunderground v.1.15,2013-07-07 23:50:00,
2013-07-07 20:00:00,72.8,71.0,30.08,East,88,0.0,0.0,94,0.00,,,0.02,Wunderground v.1.15,2013-07-08 00:00:00,
2013-07-07 20:10:00,72.6,70.8,30.09,East,88,0.0,0.0,94,0.00,,,0.02,Wunderground v.1.15,2013-07-08 00:10:00,
2013-07-07 20:20:00,72.6,71.1,30.09,East,88,0.0,0.0,95,0.00,,,0.02,Wunderground v.1.15,2013-07-08 00:20:00,
2013-07-07 20:30:00,72.6,71.1,30.09,East,88,0.0,0.0,95,0.00,,,0.02,Wunderground v.1.15,2013-07-08 00:30:00,
2013-07-07 20:40:00,72.7,71.5,30.08,East,88,0.0,2.0,96,0.00,,,0.02,Wunderground v.1.15,2013-07-08 00:40:00,
2013-07-07 20:50:00,72.6,71.4,30.09,East,88,0.0,2.0,96,0.00,,,0.02,Wunderground v.1.15,2013-07-08 00:50:00,
2013-07-07 21:00:00,72.4,71.2,30.09,East,88,0.0,0.0,96,0.00,,,0.02,Wunderground v.1.15,2013-07-08 01:00:00,
2013-07-07 21:10:00,72.2,71.0,30.09,East,88,0.0,0.0,96,0.00,,,0.02,Wunderground v.1.15,2013-07-08 01:10:00,
2013-07-07 21:20:00,72.0,70.8,30.09,East,88,0.0,0.0,96,0.00,,,0.02,Wunderground v.1.15,2013-07-08 01:20:00,
2013-07-07 21:30:00,71.9,70.7,30.09,ESE,105,0.0,1.0,96,0.00,,,0.02,Wunderground v.1.15,2013-07-08 01:30:00,
2013-07-07 21:40:00,71.8,70.9,30.09,ESE,105,0.0,1.0,97,0.00,,,0.02,Wunderground v.1.15,2013-07-08 01:40:00,
2013-07-07 21:50:00,71.7,70.8,30.08,ESE,105,0.0,1.0,97,0.00,,,0.02,Wunderground v.1.15,2013-07-08 01:50:00,
2013-07-07 22:00:00,71.7,70.8,30.10,South,188,1.0,1.0,97,0.00,,,0.02,Wunderground v.1.15,2013-07-08 02:00:00,
2013-07-07 22:10:00,71.7,70.8,30.10,South,188,0.0,0.0,97,0.00,,,0.02,Wunderground v.1.15,2013-07-08 02:10:00,
2013-07-07 22:20:00,71.7,70.8,30.10,South,188,0.0,0.0,97,0.00,,,0.02,Wunderground v.1.15,2013-07-08 02:20:00,
2013-07-07 22:30:00,71.7,70.8,30.10,South,188,0.0,0.0,97,0.00,,,0.02,Wunderground v.1.15,2013-07-08 02:30:00,
2013-07-07 22:40:00,71.7,70.8,30.09,South,188,0.0,2.0,97,0.00,,,0.02,Wunderground v.1.15,2013-07-08 02:40:00,
2013-07-07 22:50:00,71.7,70.8,30.10,South,188,0.0,2.0,97,0.00,,,0.02,Wunderground v.1.15,2013-07-08 02:50:00,
2013-07-07 23:00:00,71.5,70.6,30.09,South,188,0.0,0.0,97,0.00,,,0.02,Wunderground v.1.15,2013-07-08 03:00:00,
2013-07-07 23:10:00,71.5,70.6,30.10,South,188,0.0,1.0,97,0.00,,,0.02,Wunderground v.1.15,2013-07-08 03:10:00,
2013-07-07 23:20:00,71.4,70.5,30.11,South,178,1.0,1.0,97,0.00,,,0.02,Wunderground v.1.15,2013-07-08 03:20:00,
2013-07-07 23:30:00,71.3,70.4,30.10,South,178,0.0,1.0,97,0.00,,,0.02,Wunderground v.1.15,2013-07-08 03:30:00,
2013-07-07 23:40:00,71.2,70.3,30.11,South,178,0.0,2.0,97,0.00,,,0.02,Wunderground v.1.15,2013-07-08 03:40:00,
2013-07-07 23:50:00,71.2,70.0,30.10,NNW,329,1.0,1.0,96,0.00,,,0.02,Wunderground v.1.15,2013-07-08 03:50:00,